This is the latest recevied weather packets stored in our database for station/object VK4TOM-13. If no packets are shown the sender has not sent any weather packets the latest 10 day(s).
| Time | Temp. | Humidity | Pressure | Rain* | Wind** | Luminosity | Snow |
|---|---|---|---|---|---|---|---|
| 1778185345 | 15.56° C | 70% | 1019.3 hPa | 0 mm | - | - | - |
| 1778184744 | 15.56° C | 70% | 1019 hPa | 0 mm | - | - | - |
| 1778184143 | 15.56° C | 70% | 1018.8 hPa | 0 mm | - | - | - |
| 1778183542 | 15.56° C | 70% | 1018.8 hPa | 0 mm | - | - | - |
| 1778182941 | 15.56° C | 70% | 1018.6 hPa | 0 mm | - | - | - |
| 1778182340 | 15.56° C | 70% | 1018.6 hPa | 0 mm | - | - | - |
| 1778181739 | 15.56° C | 70% | 1018.3 hPa | 0 mm | - | - | - |
| 1778181137 | 15.56° C | 70% | 1018.1 hPa | 0 mm | - | - | - |
| 1778180536 | 15.56° C | 70% | 1018 hPa | 0 mm | - | - | - |
| 1778179935 | 15.56° C | 70% | 1017.9 hPa | 0 mm | - | - | - |
| 1778179334 | 15° C | 70% | 1018 hPa | 0 mm | - | - | - |
| 1778178733 | 15° C | 70% | 1018 hPa | 0 mm | - | - | - |
| 1778178132 | 15.56° C | 70% | 1018 hPa | 0 mm | - | - | - |
| 1778177531 | 15.56° C | 70% | 1017.8 hPa | 0 mm | - | - | - |
| 1778176930 | 15.56° C | 70% | 1017.8 hPa | 0 mm | - | - | - |
| 1778176329 | 15.56° C | 70% | 1017.7 hPa | 0 mm | - | - | - |
| 1778175728 | 15.56° C | 70% | 1017.6 hPa | 0 mm | - | - | - |
| 1778174526 | 16.11° C | 70% | 1017.5 hPa | 0 mm | - | - | - |
| 1778173925 | 16.11° C | 70% | 1017.3 hPa | 0 mm | - | - | - |
| 1778173324 | 16.11° C | 70% | 1017.3 hPa | 0 mm | - | - | - |
| 1778172723 | 16.67° C | 70% | 1017.2 hPa | 0 mm | - | - | - |
| 1778172122 | 16.67° C | 70% | 1017.2 hPa | 0 mm | - | - | - |
| 1778171520 | 17.22° C | 70% | 1017 hPa | 0 mm | - | - | - |
| 1778170919 | 17.22° C | 70% | 1016.9 hPa | 0 mm | - | - | - |
| 1778170318 | 17.78° C | 70% | 1016.9 hPa | 0 mm | - | - | - |
* Rain since midnight (hover to see other rain measurements)
** Current wind speed in m/s (hover to see current wind gust speed)